Weather History for KCDW - July, 2012

Change the Weather History Date:

Wednesday, July 4, 2012

  Actual Average Record
Temperature  
Mean Temperature 82 °F -  
Max Temperature 95 °F 83 °F 103 °F (1966)
Min Temperature 71 °F 61 °F 48 °F (1982)
Cooling Degree Days 17    
Growing Degree Days 32 (Base 50)    
Moisture  
Dew Point 66 °F    
Average Humidity 59    
Maximum Humidity 91    
Minimum Humidity 38    
Precipitation  
Precipitation 0.08 in - - ()
Sea Level Pressure  
Sea Level Pressure 29.81 in    
Wind  
Wind Speed 2 mph (WNW)    
Max Wind Speed 12 mph    
Max Gust Speed 16 mph    
Visibility 9 miles    
Events Rain    
Averages and records for this station are not official NWS values.
T = Trace of Precipitation, MM = Missing Value Source: NWS Daily Summary

Daily Weather History Graph

Daily Weather History Graph

Search for Another Location

Airport or City:

Trip Planner

Search our weather history database for the weather conditions in past years. The results will help you decide how hot, cold, wet, or windy it might be!

Date:

Astronomy

Jul. 04, 2012 Rise Set
Actual Time 5:31 AM EDT 8:32 PM EDT
Civil Twilight 4:57 AM EDT 9:05 PM EDT
Nautical Twilight 4:15 AM EDT 9:47 PM EDT
Astronomical Twilight 3:26 AM EDT 10:36 PM EDT
Moon 9:08 PM EDT (7/4) 6:31 AM EDT (7/4)
Length of Visible Light 16h 07m
Length of Day
15h 01m
Full, 99% of the Moon is Illuminated
Jul 4
Full
Jul 10
Last Quarter
Jul 19
New
Jul 26
First Quarter
Aug 1
Full

Hourly Weather History & Observations

Time (EDT) Temp. Heat Index Dew Point Humidity Pressure Visibility Wind Dir Wind Speed Gust Speed Precip Events Conditions
12:53 AM 80.1 °F 81.2 °F 62.1 °F 54% 29.84 in 10.0 mi Calm Calm - N/A   Clear
1:53 AM 79.0 °F - 62.1 °F 56% 29.83 in 10.0 mi Calm Calm - 0.00 in   Mostly Cloudy
2:53 AM 78.1 °F - 62.1 °F 58% 29.83 in 10.0 mi Calm Calm - 0.00 in Rain Light Rain
3:53 AM 77.0 °F - 62.1 °F 60% 29.83 in 10.0 mi Calm Calm - 0.00 in   Partly Cloudy
4:53 AM 75.0 °F - 64.9 °F 71% 29.85 in 10.0 mi Calm Calm - 0.00 in Rain Light Rain
5:53 AM 73.0 °F - 66.0 °F 79% 29.86 in 4.0 mi Calm Calm - 0.05 in Rain Light Rain
6:53 AM 71.1 °F - 68.0 °F 90% 29.86 in 5.0 mi Calm Calm - 0.02 in Rain Light Rain
7:53 AM 71.1 °F - 68.0 °F 90% 29.85 in 9.0 mi Calm Calm - 0.01 in   Overcast
8:53 AM 72.0 °F - 69.1 °F 91% 29.87 in 8.0 mi Variable 3.5 mph - N/A   Mostly Cloudy
9:53 AM 75.9 °F - 66.9 °F 74% 29.86 in 10.0 mi Variable 4.6 mph - N/A   Clear
10:53 AM 81.0 °F 83.0 °F 66.0 °F 60% 29.84 in 10.0 mi Variable 5.8 mph - N/A   Clear
11:53 AM 86.0 °F 88.2 °F 66.0 °F 51% 29.82 in 10.0 mi NW 8.1 mph - N/A   Clear
12:53 PM 87.1 °F 89.2 °F 66.0 °F 49% 29.81 in 10.0 mi Variable 4.6 mph - N/A   Clear
1:53 PM 91.0 °F 93.8 °F 66.0 °F 44% 29.80 in 10.0 mi WNW 6.9 mph - N/A   Clear
2:53 PM 93.0 °F 95.9 °F 66.0 °F 41% 29.78 in 10.0 mi WNW 11.5 mph 16.1 mph N/A   Clear
3:53 PM 93.0 °F 95.0 °F 64.9 °F 39% 29.78 in 10.0 mi NW 11.5 mph 16.1 mph N/A   Partly Cloudy
4:53 PM 93.9 °F 96.1 °F 64.9 °F 38% 29.76 in 10.0 mi NW 8.1 mph - N/A   Clear
5:53 PM 93.0 °F 95.0 °F 64.9 °F 39% 29.74 in 10.0 mi NW 6.9 mph - N/A   Clear
6:53 PM 91.0 °F 95.6 °F 69.1 °F 48% 29.73 in 10.0 mi Variable 5.8 mph - N/A   Partly Cloudy
7:53 PM 88.0 °F 91.4 °F 68.0 °F 51% 29.73 in 10.0 mi Variable 3.5 mph - N/A   Clear
8:53 PM 87.1 °F 90.6 °F 68.0 °F 53% 29.75 in 10.0 mi SSW 3.5 mph - N/A   Partly Cloudy
10:53 PM 84.0 °F 87.0 °F 68.0 °F 58% 29.76 in 10.0 mi Calm Calm - N/A   Clear
11:53 PM 82.0 °F 85.5 °F 69.1 °F 65% 29.76 in 10.0 mi Calm Calm - N/A   Clear